Location: Bothwell
(42.3833°S, 147.0000°E)
Time: 00:25:57
(UTC+11:00)

RS-44 - Pass Details

Date: 29 September 2022
Orbit: 1174 x 1510 km, 82.5° (Epoch: 28 November)

Event Time Altitude Azimuth Distance (km) Brightness Sun altitude
Exits shadow 22:49:04 54° 168° (SSE) 1,787 ? -42.1°
Drops below altitude 10° 22:55:36 10° 171° (S) 3,702 ? -42.6°
Sets 22:58:33 0° 171° (S) 4,689 ? -42.8°
